Terminal Aerodrome Forecast
Issued by NWS Aberdeen, SD

Home | Current Version | Previous Version | Text Only | Print | Product List | Glossary On
Versions: 1 2 3 4 5 6 7 8 9 10 11 12 13 14 15 16 17 18 19 20 21 22 23 24 25 26 27 28 29 30 31 32 33 34 35 36 37 38 39
000
FTAK31 PAFA 301318 AAA
TAFABR
TAF AMD
PABR 301318Z 3013/0112 23012KT P6SM BKN014 OVC021
     FM302000 18010KT P6SM OVC015
     FM010200 13011KT P6SM OVC050
     FM011000 10014KT P6SM SCT007 BKN015 OVC050=

USA.gov is the U.S. government's official web portal to all federal, state and local government web resources and services.